SL-19 DEB, 23564

Orbit data source: Space-Track

SL-19 DEB, 23564 is space debris in LEO originally from a launch on Mon, 26 Dec 1994 UTC launched from the Tyuratam Missile And Space Complex (TTMTR). Debris objects in space refer to the collection of defunct objects orbiting the Earth. Examples of debris include non-operational satellites, rocket bodies, and fragments generated from explosions, collisions, or faulty payload assembly.

Loading next visibility...
Identifier
23564, 1994-085V
Orbit
LEO
Country
Flag of CISCIS
Related business
Manufacturer
Unknown
Mission
Spacecraft
Bus & Motor
Unknown
Mass
Unknown
Launch date (UTC)
1994-12-26 (31 years ago)
Launch vehicle
Unknown
Launch site
Tyuratam Missile And Space Complex (TTMTR)
Object type
Payload
Rocket body
Debris
Shape & HBR
Unknown shape, 0.1 m
Radar Cross Section
Small (<0.1 m²)

Expand to show TLE details & history
Last TLE update: 7 hours ago

TLE from 7 hours ago
0 SL-19 DEB
1 23564U 94085V   26046.26211700  .00000022  00000-0  16741-2 0  9998
2 23564  64.9994 345.3641 0181856 104.9038  45.3806 11.34895298274338
Epoch: 2026-02-15T06:17Z
TLE epoch observation values (Epoch: 2026-02-15T06:17:26.908Z)
Latitude
25.40809°
Longitude
-87.00771°
Altitude
1,882.704 km
Speed
6.993 km/s
True Right ascension
10h 10m 30s
True Declination
25° 17' 35"
Sunlit
Object was in full shadow at epoch
Visualization orbit readout
Latitude
Unknown
Longitude
Unknown
Altitude
Unknown
Speed
Unknown
Apparent Right ascension
Unknown
Apparent Declination
Unknown
Sunlit
N/A
Visualization observer readout
Local Sidereal Time
16:17:57
Azimuth
Unknown
Elevation
Unknown
Doppler factor
Unknown
Orbital elements
Apogee altitude
2,137.067 km
Perigee altitude
1,832.89 km
Semi-major axis
8,363.116 km
Eccentricity
0.01819
Inclination
64.9994°
RAAN
345.3641°
Arg. of periapsis
104.9038°
True anomaly
46.88778°
Mean anomaly
45.3806°
Eccentric anomaly
46.13178°
Mean motion
2.83786 °/min
Orbital period
126.86 mins
BSTAR
0.0016741
Loading maneuver chart data...
Computing Atmospheric mass density...
Loading historical data...
Loading historical data...
Loading historical data...
Loading historical data...
Loading historical data...
Loading historical data...
Loading historical data...

Documentation

Showing up to 5 results
|